Dewpoint
51 51 51 51 50 51 51 51 50 50 49 46 45 43 34 34 32 36 38 38 37 33 25 29 30 29 29 30 29 32 31 31 32 31 30 26 23 23 24 24 23 26 27 26 25 26 27 26 26 28 27 27 26 27 27 28 34 37 32 35 30 41 36 27 25 28 23 23 22 21 18 16 16 17 17 15 14 15 16 18 30 19 22 19 19 21 20
51 51 51 50 51 51 50 51 50 50 50 48 47 40 36 36 34 35 37 38 36 29 26 26 27 29 30 30 27 33 31 33 33 33 32 27 26 23 23 25 25 26 28 27 26 26 27 25 24 25 28 27 28 26 28 28 33 33 30 31 29 31 35 35 27 24 24 19 21 17 17 16 21 19 17 17 15 16 16 21 36 21 21 17 18 17 21
51 51 50 51 51 51 50 51 50 51 50 50 46 41 39 37 36 38 36 36 32 28 29 29 28 28 29 28 26 29 33 35 35 34 32 30 30 26 26 26 26 27 28 28 26 25 25 26 24 24 24 25 27 26 27 29 33 33 31 40 32 34 35 35 22 22 21 20 18 17 18 19 29 31 27 27 16 17 18 19 29 20 31 28 20 19 31
51 51 51 51 50 50 50 50 50 51 50 49 46 42 38 33 28 29 30 33 32 31 31 30 30 28 28 28 26 29 27 33 36 35 32 32 33 27 28 28 26 26 27 26 26 24 24 25 26 25 25 26 26 27 28 29 32 38 38 38 33 33 36 36 35 34 30 31 34 30 32 29 25 27 28 28 29 30 23 23 26 20 35 27 27 28 25
51 51 51 50 50 50 50 50 50 50 50 49 46 43 39 37 30 30 30 31 32 29 30 30 31 28 30 28 29 28 28 31 34 36 33 35 34 31 28 29 27 27 27 27 25 25 23 27 26 26 26 28 26 27 28 29 35 38 30 34 31 32 27 33 36 33 29 25 26 23 26 26 27 27 27 29 30 32 30 21 22 45 27 19 28 37 29
51 51 50 50 50 50 50 50 50 50 49 48 48 39 38 31 31 33 38 32 28 28 28 31 31 31 31 29 32 29 28 28 29 32 36 37 38 31 30 31 30 29 27 28 25 26 27 29 27 26 29 27 26 22 27 27 33 31 21 26 31 30 23 31 27 24 21 22 22 23 26 27 28 28 28 28 29 30 30 33 32 38 21 20 32 42 37
51 51 50 50 50 50 50 50 50 49 49 49 47 39 36 35 35 34 38 32 31 31 32 33 33 31 31 33 30 28 27 27 29 30 32 34 35 35 30 31 31 30 29 29 27 31 24 25 31 31 30 27 28 23 24 26 27 25 23 23 32 30 25 30 22 21 21 21 20 23 26 26 24 24 24 24 24 25 26 28 29 29 34 32 29 41 37
51 51 50 50 50 50 50 50 50 49 49 49 45 42 37 35 35 35 35 35 33 32 33 33 31 28 32 28 27 31 28 27 29 30 31 29 31 33 29 30 31 31 30 31 28 31 31 30 28 32 31 28 29 29 27 27 27 26 22 24 28 27 26 29 19 23 21 19 20 25 24 23 22 22 23 24 24 25 25 26 28 32 31 29 27 31 31
51 50 50 50 50 50 50 50 50 49 48 46 43 40 41 38 42 42 37 33 31 35 33 31 32 28 28 28 27 29 28 27 30 30 32 32 31 32 30 30 31 30 30 30 30 31 30 30 30 30 30 29 30 28 27 28 27 27 25 29 30 26 23 25 24 20 19 19 19 19 20 20 22 24 24 25 25 26 27 29 29 31 33 33 30 30 29
51 51 50 50 50 50 50 50 50 49 48 45 44 38 43 44 46 45 40 32 34 31 31 32 30 25 28 30 29 29 28 29 31 29 31 34 33 32 31 31 31 30 29 30 31 31 30 30 30 31 30 31 30 30 29 28 28 27 28 31 25 25 23 20 16 16 18 18 18 18 20 21 20 21 22 23 24 26 27 29 30 29 28 29 30 30 30
51 51 50 50 49 49 49 49 49 50 48 45 43 41 41 42 41 41 40 33 31 33 31 28 29 30 29 29 30 30 30 30 31 29 29 29 31 31 32 31 31 31 30 32 32 32 32 32 33 33 33 32 31 30 29 28 27 28 28 28 29 30 27 20 24 18 19 17 16 19 21 18 20 30 31 36 35 40 40 35 35 32 27 26 28 28 34
51 51 50 50 50 49 49 49 49 50 48 49 48 44 43 45 44 42 37 31 29 29 29 27 28 29 29 30 30 30 30 30 31 32 31 30 31 31 30 31 33 28 31 32 32 33 33 33 34 35 34 34 33 32 31 29 27 30 27 27 27 28 31 25 29 19 16 19 21 20 18 19 34 30 36 42 45 46 47 48 46 44 42 37 29 28 32
50 50 50 50 50 50 49 49 49 49 50 50 48 44 43 48 44 41 38 35 30 29 28 28 30 30 30 30 30 30 30 31 31 32 32 32 31 31 30 31 32 33 33 32 33 33 34 30 32 32 31 31 32 31 30 30 29 27 26 28 27 26 26 27 27 22 19 18 17 16 18 26 23 27 45 49 47 45 49 45 44 47 48 50 46 40 32
50 50 50 50 50 50 49 49 49 49 50 50 48 46 45 47 43 41 38 35 33 32 34 32 29 30 31 30 31 30 30 30 31 32 30 30 31 30 31 32 31 32 32 33 34 38 33 31 26 27 22 29 30 30 29 29 28 28 27 28 28 26 27 28 23 26 16 17 14 15 25 19 18 23 44 46 43 47 46 40 45 50 55 55 55 56 57
50 50 51 50 50 50 50 49 49 49 50 50 49 47 47 46 46 43 43 38 32 33 33 29 28 30 30 30 30 29 29 30 30 30 31 32 31 32 32 32 32 33 33 35 36 40 33 33 25 19 22 16 9 10 28 26 29 29 29 28 30 31 27 28 24 23 20 13 13 16 15 16 20 44 46 47 49 51 51 49 46 53 54 55 56 56 57
50 50 51 51 50 50 50 49 49 50 50 50 49 48 46 47 47 46 42 39 37 30 32 32 33 33 32 31 32 31 30 30 31 30 29 31 31 32 32 33 34 34 34 37 41 37 33 25 21 24 21 22 25 22 18 22 20 25 30 31 30 30 31 31 25 20 21 17 11 11 13 18 34 46 44 47 49 51 52 47 41 53 53 54 55 56 57
50 50 50 51 51 50 50 49 49 50 49 49 48 47 46 48 47 44 43 41 39 33 33 34 34 34 33 31 31 32 34 31 30 28 28 29 31 31 32 34 34 33 35 36 39 33 28 26 26 26 26 29 24 19 20 25 22 26 32 31 30 30 29 29 27 26 25 23 16 11 15 15 36 44 45 47 52 51 48 35 33 52 53 54 55 56 56
50 51 50 50 51 51 51 50 50 49 50 50 48 46 45 48 47 47 43 41 37 35 34 34 34 33 32 32 31 32 34 33 33 34 32 31 31 31 33 33 30 30 38 37 36 33 31 30 23 22 21 26 26 30 25 25 28 29 31 31 30 30 30 29 26 23 24 26 23 22 23 30 30 40 48 51 52 49 37 35 48 53 54 55 55 56 57
51 51 51 51 51 51 51 51 51 50 50 50 50 48 46 47 49 48 44 41 39 34 35 35 37 36 36 36 35 34 34 33 33 31 30 30 31 36 34 32 32 29 34 33 35 30 27 26 33 31 24 27 31 24 31 29 27 29 30 28 31 31 31 32 30 25 23 23 21 22 25 35 43 47 44 51 42 36 31 49 54 54 54 55 55 56 57
51 51 50 51 51 51 51 51 51 51 51 51 49 46 45 47 49 48 44 40 40 37 36 36 35 34 36 36 34 33 33 34 34 33 32 29 34 33 30 26 40 36 34 38 28 34 28 26 28 31 27 28 30 35 28 27 29 28 27 29 29 33 32 29 28 28 27 27 25 24 23 33 45 50 46 49 35 41 53 54 55 54 55 54 55 56 57
51 51 51 51 51 52 52 52 51 51 51 51 49 47 46 47 47 48 48 45 41 37 36 37 37 36 36 35 35 35 34 32 32 32 33 32 35 33 26 25 34 34 29 36 26 26 31 25 26 26 28 33 31 29 26 27 27 29 30 30 30 34 29 31 31 31 25 25 24 23 30 47 46 50 45 50 52 54 55 54 53 54 54 55 54 55 56
51 51 51 51 52 52 52 52 52 51 51 51 50 49 45 46 48 49 48 48 42 39 38 38 39 38 38 38 37 37 36 35 35 35 33 32 36 34 32 32 32 35 36 37 32 30 34 34 37 29 25 25 32 28 30 27 24 28 34 35 25 34 36 38 33 39 36 32 34 40 42 43 43 47 52 53 54 56 55 55 54 54 54 55 54 55 55
51 51 51 52 52 52 53 52 52 52 51 52 51 49 45 46 47 50 49 43 45 45 44 43 42 41 42 41 41 40 39 39 37 37 37 35 33 34 34 33 32 35 36 37 34 34 34 35 29 31 29 32 30 28 29 28 27 29 26 29 29 33 34 39 40 38 40 38 37 39 38 39 43 42 52 54 54 54 55 54 54 54 54 54 54 55 55
52 52 51 51 52 52 53 53 53 52 52 52 51 49 47 47 47 48 46 45 42 39 39 40 39 36 36 36 38 40 42 41 41 39 39 39 34 34 35 35 34 35 37 38 40 37 38 37 35 36 29 30 35 30 27 25 27 28 29 28 30 35 35 36 36 37 34 30 46 42 40 45 47 49 53 55 56 55 56 56 56 55 55 55 55 56 57
51 52 52 52 52 52 52 53 52 52 53 52 52 52 51 49 49 48 44 39 39 38 33 34 36 36 36 36 36 36 38 41 42 42 40 39 38 35 33 35 36 34 37 40 42 40 41 34 36 36 30 33 34 28 31 30 27 32 29 29 31 30 38 34 33 35 35 33 36 38 41 43 44 44 48 50 53 55 56 57 56 56 56 55 56 57 57
51 51 51 51 52 52 52 52 52 53 53 52 52 50 48 47 49 49 47 46 45 41 34 32 34 37 37 35 34 35 37 39 40 41 42 40 39 38 36 37 37 38 37 38 42 38 38 37 37 36 33 33 37 33 30 33 31 35 37 30 32 33 36 32 35 32 32 36 37 37 37 37 38 39 44 50 54 56 56 56 56 55 56 56 56 57 57
51 51 51 51 52 52 52 52 52 52 52 52 52 51 50 49 49 48 45 44 40 35 37 34 37 36 38 36 37 37 37 37 38 40 41 41 40 39 38 38 38 38 37 36 41 41 41 39 37 34 34 34 38 37 36 34 34 33 32 33 36 35 33 34 34 34 34 35 36 43 38 39 47 50 50 51 55 57 56 57 57 56 56 56 56 56 56
51 51 51 51 52 52 52 52 52 52 52 52 52 52 51 50 49 49 49 48 42 35 36 35 36 37 40 38 38 37 37 37 36 37 38 40 41 39 39 38 38 36 36 36 35 37 37 35 33 36 36 38 37 35 38 38 39 36 35 35 37 35 37 35 34 33 32 36 41 43 45 47 46 47 47 47 52 57 56 56 57 57 57 57 57 56 57
51 51 51 51 51 52 51 52 51 52 52 52 52 51 50 51 51 50 49 50 47 43 40 40 42 40 35 35 36 35 37 38 38 36 36 37 40 40 39 39 38 37 37 36 36 35 34 34 36 35 36 42 38 36 38 32 32 30 32 37 41 41 40 38 37 37 37 38 38 39 40 40 42 45 47 49 54 56 56 56 57 57 58 58 58 58 57
51 51 51 51 51 51 51 51 51 52 52 52 50 47 43 45 50 50 50 50 48 46 39 35 32 36 39 39 37 37 36 38 37 37 38 37 37 38 39 39 39 39 38 36 36 34 34 34 34 35 36 42 37 37 33 34 31 33 38 41 42 43 41 41 40 40 39 40 41 42 43 45 45 46 45 47 50 54 56 56 57 58 58 58 58 58 58
51 51 51 51 51 51 51 51 51 52 51 50 47 42 39 36 44 51 51 50 50 45 41 39 35 40 38 39 37 36 38 39 37 36 37 37 37 37 38 39 39 39 38 37 37 36 37 36 34 35 37 40 41 37 35 34 32 33 36 40 41 42 43 43 43 42 42 42 43 43 44 44 45 46 48 49 50 53 57 57 58 58 58 58 57 58 59
51 51 51 51 51 51 51 51 51 51 51 49 45 43 44 45 48 50 51 50 49 44 40 34 34 35 35 38 41 41 40 40 40 38 38 37 37 37 38 38 37 38 39 37 37 38 36 36 35 35 36 42 41 38 38 35 32 32 37 40 41 42 44 44 43 43 42 42 42 42 42 43 45 47 48 50 53 54 56 58 58 58 59 59 59 59 58
51 51 51 51 51 51 51 52 52 51 50 50 49 50 50 49 50 50 49 50 47 43 43 36 31 34 33 38 40 41 42 41 40 41 39 41 39 37 36 37 37 37 42 39 38 35 37 36 37 35 36 43 39 38 35 33 34 37 39 40 40 43 43 44 44 43 42 41 43 44 43 44 49 51 52 53 55 55 57 57 57 58 57 57 56 55 57
51 50 50 51 51 51 51 51 51 51 50 49 47 48 51 50 50 50 50 48 46 45 42 35 32 32 33 43 37 44 44 40 38 42 39 44 45 40 40 38 37 36 38 36 38 37 40 41 37 37 42 41 41 38 34 35 37 37 38 38 40 42 43 43 43 43 44 44 46 47 48 50 52 55 56 55 55 56 57 58 56 55 55 54 55 57 58
50 50 50 51 51 52 51 51 50 49 47 47 48 50 53 50 50 50 49 46 39 36 36 35 36 31 31 34 33 39 47 44 40 42 39 42 47 41 43 41 39 36 40 38 39 39 39 38 42 40 36 43 40 34 35 34 35 38 41 41 43 43 44 44 45 47 47 47 48 50 51 52 52 53 53 53 54 55 56 57 56 54 54 55 57 58 59
50 51 51 52 51 51 51 50 50 48 47 46 47 51 51 52 52 50 49 50 46 36 34 34 34 31 33 29 30 40 45 41 42 43 42 45 45 46 46 42 37 39 42 38 37 40 37 45 41 36 42 37 34 34 36 40 40 39 39 39 41 43 44 44 44 45 47 48 48 50 52 52 52 52 53 54 55 55 55 56 55 56 55 56 57 57 58
50 51 51 51 52 50 47 46 50 48 48 49 50 51 52 53 52 51 48 47 49 47 38 33 32 32 34 33 37 40 43 37 45 44 43 42 43 44 44 42 38 43 42 41 40 39 42 47 41 37 37 34 35 40 42 41 42 41 41 41 42 44 46 46 47 47 47 50 51 52 52 53 53 53 53 53 54 55 55 55 56 56 56 56 57 58 59
50 51 50 50 51 49 48 48 48 50 51 51 51 50 50 49 43 44 44 42 45 45 41 38 32 35 39 35 32 43 42 40 45 40 41 46 42 42 45 41 43 42 35 37 40 46 45 43 40 38 36 39 40 42 43 44 44 44 43 44 45 47 49 48 49 49 49 49 50 50 51 52 52 52 52 52 53 54 55 56 58 55 57 58 58 59 60
50 50 48 47 47 48 46 46 51 52 50 51 51 48 45 46 43 39 39 42 42 37 40 36 33 36 34 33 36 43 40 39 38 39 37 43 41 37 43 37 42 42 34 35 39 47 38 40 40 40 37 41 43 43 45 48 48 49 49 48 50 51 51 51 52 51 50 50 52 53 52 51 51 52 54 54 55 56 56 57 58 58 59 59 59 59 59
48 47 46 47 46 44 48 50 51 50 50 48 48 47 42 45 41 37 43 36 35 39 39 32 39 38 38 37 36 38 45 40 36 37 39 41 47 39 41 39 41 38 32 32 37 45 38 33 38 37 37 42 42 45 47 48 48 50 52 52 52 54 54 54 53 54 54 53 53 54 54 53 54 54 55 55 55 55 55 56 58 58 59 59 59 58 58
47 47 46 46 47 48 49 49 50 50 49 46 45 44 43 35 43 44 43 39 38 40 43 41 42 40 41 40 40 38 47 47 46 47 43 38 46 44 39 33 42 35 32 32 40 41 37 35 35 34 36 41 43 46 48 48 49 50 52 53 54 53 54 54 54 54 54 53 53 54 54 55 55 55 56 56 55 55 56 56 56 57 59 58 57 58 58
49 48 48 50 50 49 49 50 49 47 48 47 40 35 38 43 47 45 45 38 40 44 45 43 42 44 42 41 41 43 45 49 48 45 41 34 42 39 34 35 36 32 31 36 40 36 35 32 32 34 40 44 45 46 47 48 50 51 51 52 53 53 54 54 54 54 55 54 54 54 54 55 54 55 55 57 56 56 56 56 57 57 57 58 58 58 58
50 50 50 47 47 47 47 38 41 46 35 36 35 34 38 35 40 40 42 46 49 46 46 51 50 50 47 47 46 47 46 49 45 41 38 34 41 39 33 33 33 31 35 40 35 33 33 32 32 35 42 44 45 45 46 48 49 50 50 51 51 52 53 54 54 54 55 55 54 54 54 55 55 55 55 57 57 58 57 57 57 57 57 57 57 57 57
50 49 49 48 41 44 46 34 42 45 36 37 35 33 37 36 39 42 40 42 45 45 47 45 46 47 43 49 47 46 47 47 49 44 41 42 39 33 34 33 32 40 43 35 33 32 32 33 36 41 43 44 45 45 45 46 47 48 48 49 50 50 51 52 52 53 54 54 55 55 55 55 56 56 56 56 56 55 56 57 57 58 58 57 56 55 55
47 40 38 37 37 39 37 35 39 36 35 37 39 38 39 36 39 41 41 46 47 44 47 47 48 47 46 49 51 49 49 45 49 44 40 42 39 40 36 35 42 41 34 33 33 33 33 33 39 42 43 43 44 44 45 45 46 46 47 47 47 48 48 49 49 50 52 53 54 55 54 54 55 55 55 56 56 56 56 56 56 55 54 54 54 54 55
43 37 35 35 35 36 36 36 36 35 41 42 40 42 41 41 42 42 47 50 47 47 46 47 47 49 45 49 46 45 48 48 44 43 44 45 39 36 42 46 44 36 33 32 31 30 31 34 39 41 43 43 44 44 45 45 45 46 46 46 47 47 48 48 48 49 50 50 50 51 51 52 51 51 51 52 52 52 53 54 54 54 53 53 53 54 54
42 43 34 35 35 37 43 36 38 42 43 42 41 41 42 42 42 43 47 49 49 49 49 49 49 49 45 42 46 47 46 47 42 42 46 38 38 42 47 40 32 33 31 29 30 31 33 37 41 43 43 44 43 44 44 44 45 45 45 46 47 46 47 47 47 48 49 49 49 49 50 50 51 51 51 50 51 51 52 52 51 52 52 51 52 52 52
37 41 37 36 35 38 37 41 46 44 45 44 41 41 41 45 46 41 43 45 47 46 46 47 47 47 45 49 50 40 42 44 42 41 44 40 43 38 33 34 32 34 34 32 32 35 38 41 43 43 44 45 44 43 44 44 44 44 44 45 45 46 46 47 47 48 48 48 49 49 49 50 49 49 49 48 49 49 50 50 51 51 51 51 51 49 49
44 37 37 37 41 43 43 40 41 38 38 40 40 40 40 40 39 40 42 44 44 45 45 47 43 48 42 42 40 38 37 42 37 35 43 38 34 31 32 29 30 30 34 35 36 39 41 43 45 45 44 44 44 44 44 45 44 44 43 44 45 46 46 47 47 48 49 49 49 49 48 49 48 48 48 48 47 48 48 48 48 49 49 49 49 49 48
37 37 42 37 42 38 40 40 39 37 38 39 39 39 40 40 39 41 42 43 45 46 46 48 45 41 41 43 36 37 35 43 40 36 38 35 35 35 33 30 31 32 34 39 40 42 44 45 45 44 44 44 44 43 43 43 44 45 44 45 45 45 46 46 47 48 48 49 49 49 49 49 48 48 47 47 47 47 47 47 47 47 46 47 47 46 46
41 37 39 43 41 39 40 38 38 38 38 38 39 39 41 40 40 41 43 44 45 42 40 39 41 39 36 36 36 34 35 44 41 37 37 36 38 36 32 31 33 38 40 43 44 45 45 45 45 44 44 43 43 43 42 42 42 42 42 43 44 45 45 46 46 47 48 48 49 50 49 49 50 49 48 46 46 45 44 45 46 45 44 45 45 45 44
36 36 38 40 41 40 41 41 43 41 42 40 39 40 41 40 41 43 45 46 41 38 37 40 40 36 35 35 38 43 44 39 35 37 36 38 41 35 35 37 39 42 43 43 43 44 45 45 45 45 43 42 42 41 40 40 39 39 40 40 41 42 43 44 45 46 46 47 48 48 49 50 49 49 47 46 45 44 43 43 44 43 45 43 43 42 42